This demonstration page uses our WeatherBlox Daily Observations layout. Learn more.

Left ArrowRight Arrow

40.97296, -117.73568

Hourly Observations for August 9, 2020

Temp ( °F °C ) Dew Point ( °F °C ) Humidity (%) Winds ( mph kmh ) Pressure ( in mb ) Visibility ( mi km ) Precip ( " mm )
12:56 am 00:56 Clear 62 16.7 28 -2.2 28 28 WNW 9 15 29.91 1013 10 16 0.00 0.00
1:56 am 01:56 Clear 64 17.8 27 -2.8 25 25 N 6 9 29.90 1013 10 16 0.00 0.00
2:56 am 02:56 Clear 56 13.3 27 -2.8 33 33 Calm 29.93 1013 10 16 0.00 0.00
3:56 am 03:56 Clear 53 11.7 23 -5 31 31 WSW 5 7 29.95 1014 10 16 0.00 0.00
4:56 am 04:56 Clear 52 11.1 26 -3.3 37 37 Calm 29.96 1015 10 16 0.00 0.00
5:56 am 05:56 Clear 50 10 28 -2.2 43 43 SW 3 6 29.98 1015 10 16 0.00 0.00
6:56 am 06:56 Sunny 56 13.3 29 -1.7 36 36 SE 3 6 29.98 1015 10 16 0.00 0.00
7:56 am 07:56 Sunny 66 18.9 30 -1.1 26 26 Calm 29.99 1016 10 16 0.00 0.00
8:56 am 08:56 Sunny 76 24.4 26 -3.3 16 16 VRB 3 6 29.99 1016 10 16 0.00 0.00
9:56 am 09:56 Sunny 82 27.8 25 -3.9 12 12 VRB 3 6 29.98 1015 10 16 0.00 0.00
10:56 am 10:56 Sunny 86 30 26 -3.3 11 11 N 6 9 29.98 1015 10 16 0.00 0.00
11:56 am 11:56 Sunny 92 33.3 27 -2.8 10 10 VRB 5 7 29.96 1015 10 16 0.00 0.00
12:56 pm 12:56 Sunny 94 34.4 29 -1.7 10 10 NW 8 13 29.93 1014 10 16 0.00 0.00
1:56 pm 13:56 Sunny 96 35.6 30 -1.1 10 10 undefined N/A 29.91 1013 10 16 0.00 0.00
2:56 pm 14:56 Mostly Sunny 95 35 31 -0.6 10 10 W 8 13 29.91 1013 10 16 0.00 0.00
3:56 pm 15:56 Mostly Sunny 97 36.1 26 -3.3 8 8 VRB 7 11 29.89 1012 10 16 0.00 0.00
4:56 pm 16:56 Mostly Sunny 96 35.6 27 -2.8 8 8 NW 9 15 29.89 1012 10 16 0.00 0.00
5:56 pm 17:56 Mostly Sunny 95 35 28 -2.2 9 9 NW 6 9 29.88 1012 10 16 0.00 0.00
6:56 pm 18:56 Mostly Sunny 94 34.4 26 -3.3 9 9 NW 8 13 29.87 1011 10 16 0.00 0.00
7:56 pm 19:56 Sunny 87 30.6 31 -0.6 13 13 N 8 13 29.87 1012 10 16 0.00 0.00
8:56 pm 20:56 Clear 84 28.9 32 0 15 15 N 9 15 29.88 1012 10 16 0.00 0.00
9:56 pm 21:56 Clear 81 27.2 33 0.6 18 18 NE 12 19 29.90 1012 10 16 0.00 0.00
10:56 pm 22:56 Clear 79 26.1 31 -0.6 17 17 NE 12 19 29.91 1013 10 16 0.00 0.00
11:56 pm 23:56 Clear 73 22.8 30 -1.1 20 20 NNW 8 13 29.92 1013 10 16 0.00 0.00

Powered by AerisWeather